Voltar ao catálogo

COSMOS 1414

GLONASS

AtivoNavegaçãoMEO
NORAD 13606·PAYLOAD·🇷🇺 Russia

Lançado Oct 12, 1982 de Baikonur Cosmodrome

Loading…

Próximas Passagens (próximas 24 horas)

TLE

AtualizadoSource: Space-Track

Época: Sep 14, 2026, 15:38 UTC

1 13606U 82100D   26257.65154137 -.00000013  00000-0  00000-0 0  9996
2 13606  64.8538  68.1226 0078716  34.2114 146.2557  2.13103877341809

Acompanhe COSMOS 1414 em tempo real com AllMySat

Download on the App Store